Torna al catalogo

DMSP 5D-3 F18 DEB

AttivoSSO
NORAD 35953·DEBRIS·🇺🇸 United States

Lanciato Oct 18, 2009 da Vandenberg Space Force Base

Loading…

Prossimi Passaggi (prossime 24 ore)

TLE

AggiornatoSource: Space-Track

Epoca: Sep 14, 2026, 11:10 UTC

1 35953U 09057C   26257.46594984  .00001225  00000-0  50180-3 0  9994
2 35953  98.6593 247.1247 0002986 196.6547 324.4106 14.28995775875262

Traccia DMSP 5D-3 F18 DEB in tempo reale con AllMySat

Download on the App Store